FW7631 Weather Reports


time (UTC)temp
C
wind
direction
speed
KPH
gust
KPH
rain 1hr
cm
rain 24hr
cm
rain mn
cm
humidity
%
barometer
mb
20260504150515 13 225 11.3 24.1 0.00 0.05 0.05 51 1014.4
20260504140537 13 180 8.0 24.1 0.00 0.05 0.05 51 1014.2
20260504130517 12 248 3.2 8.0 0.00 0.05 0.05 56 1014.6
20260504110516 5 270 1.6 4.8 0.00 0.05 0.05 79 1014.6
20260504100516 3 225 3.2 8.0 0.00 0.05 0.05 88 1014.2
20260504081516 7 293 3.2 8.0 0.00 0.05 0.05 74 1014.5
20260504080516 7 225 3.2 11.3 0.00 0.05 0.05 74 1014.5
20260504050516 6 315 4.8 12.9 0.00 0.00 0.00 70 1015.0
20260504045516 6 270 3.2 8.0 0.00 0.00 0.00 66 1014.9
20260504044516 6 248 3.2 8.0 0.00 0.00 0.00 65 1014.9
20260504043516 7 270 3.2 8.0 0.00 0.00 0.00 64 1014.9
20260504042516 7 248 3.2 9.7 0.00 0.00 0.00 64 1015.0
20260504041516 7 248 4.8 14.5 0.00 0.00 0.00 64 1014.8
20260504040516 7 225 4.8 12.9 0.00 0.00 0.00 62 1014.8
20260504035516 6 225 4.8 9.7 0.00 0.00 0.00 60 1014.9
20260504034516 6 315 3.2 11.3 0.00 0.00 0.00 57 1014.6
20260504033516 6 90 1.6 4.8 0.00 0.00 0.00 54 1014.5
20260504032516 6 45 1.6 4.8 0.00 0.00 0.00 53 1014.6
20260504031516 6 45 1.6 4.8 0.00 0.00 0.00 52 1014.6
20260504030516 6 68 1.6 4.8 0.00 0.00 0.00 52 1014.7
20260504025516 6 0.0 1.6 0.00 0.00 0.00 51 1014.7
20260504024516 6 180 1.6 6.4 0.00 0.00 0.00 50 1014.5
20260504023516 6 248 1.6 8.0 0.00 0.00 0.00 51 1014.7
20260504022516 6 248 3.2 14.5 0.00 0.00 0.00 50 1014.8
20260504021516 6 270 3.2 16.1 0.00 0.00 0.00 50 1014.6
20260504020517 6 203 1.6 4.8 0.00 0.00 0.00 50 1014.6
20260504015516 6 315 1.6 6.4 0.00 0.00 0.00 49 1014.6
20260504014516 6 45 1.6 4.8 0.00 0.00 0.00 49 1014.5
20260504013516 5 270 1.6 12.9 0.00 0.00 0.00 49 1014.2
20260504012516 5 0.0 3.2 0.00 0.00 0.00 49 1014.1
20260504011517 5 0.0 3.2 0.00 0.00 0.00 49 1013.9
20260504010516 5 0.0 3.2 0.00 0.00 0.00 47 1013.9
20260504005516 5 0.0 1.6 0.00 0.00 0.00 48 1013.7
20260504004516 5 0.0 1.6 0.00 0.00 0.00 51 1013.5
20260504003516 4 0.0 1.6 0.00 0.00 0.00 56 1013.4
20260504002516 5 0.0 3.2 0.00 0.00 0.00 53 1013.4
20260504001516 5 0.0 1.6 0.00 0.00 0.00 51 1013.2
20260504000516 6 0.0 0.0 0.00 0.00 0.00 48 1013.1
20260503235516 6 0.0 1.6 0.00 0.00 0.00 47 1013.2
20260503234516 7 0.0 3.2 0.00 0.00 0.00 45 1013.1
20260503233516 7 0.0 3.2 0.00 0.00 0.00 45 1013.0
20260503232516 7 158 1.6 3.2 0.00 0.00 0.00 46 1013.1
20260503231516 7 0.0 3.2 0.00 0.00 0.00 46 1012.8
20260503230516 8 158 1.6 4.8 0.00 0.00 0.00 46 1012.9
20260503225516 8 0.0 3.2 0.00 0.00 0.00 44 1012.9
20260503224536 8 0 1.6 8.0 0.00 0.00 0.00 43 1012.8
20260503223516 8 0.0 4.8 0.00 0.00 0.00 45 1012.8
20260503222515 8 225 4.8 9.7 0.00 0.00 0.00 44 1012.8
20260503221515 8 0 6.4 17.7 0.00 0.00 0.00 43 1012.9
20260503220516 8 90 1.6 6.4 0.00 0.00 0.00 44 1012.7
20260503215516 8 180 3.2 9.7 0.00 0.00 0.00 45 1012.6
20260503214515 8 270 3.2 16.1 0.00 0.00 0.00 47 1012.6
20260503213516 8 45 4.8 12.9 0.00 0.00 0.00 46 1012.7
20260503212516 10 248 6.4 14.5 0.00 0.00 0.00 46 1012.7
20260503211516 9 225 6.4 11.3 0.00 0.00 0.00 44 1012.8
20260503210516 9 270 6.4 20.9 0.00 0.00 0.00 43 1012.7
20260503205516 9 203 9.7 20.9 0.00 0.00 0.00 44 1012.5
20260503204515 9 225 8.0 24.1 0.00 0.00 0.00 45 1012.9
20260503203515 10 203 6.4 16.1 0.00 0.00 0.00 45 1012.7
20260503202516 9 225 6.4 20.9 0.00 0.00 0.00 43 1012.7
20260503201536 8 225 8.0 20.9 0.00 0.00 0.00 46 1012.6
20260503200515 8 225 4.8 11.3 0.00 0.00 0.00 49 1012.4
20260503195516 7 293 6.4 17.7 0.00 0.00 0.00 47 1012.3
20260503194516 7 225 4.8 14.5 0.00 0.00 0.00 48 1012.5
20260503193515 8 248 4.8 25.7 0.00 0.00 0.00 48 1012.7
20260503192515 7 315 6.4 14.5 0.00 0.00 0.00 47 1012.7
20260503191536 7 315 6.4 16.1 0.00 0.00 0.00 46 1012.6
20260503190515 8 338 4.8 16.1 0.00 0.00 0.00 46 1012.7
20260503185516 8 23 4.8 11.3 0.00 0.00 0.00 50 1012.6
20260503184515 7 338 3.2 11.3 0.00 0.00 0.00 52 1012.7
20260503183555 6 90 4.8 12.9 0.00 0.00 0.00 51 1012.6
20260503182515 7 158 4.8 19.3 0.00 0.00 0.00 52 1012.7
20260503181515 7 315 8.0 25.7 0.00 0.00 0.00 49 1012.5
20260503180515 6 315 4.8 14.5 0.00 0.00 0.00 53 1012.6
20260503175515 6 293 4.8 14.5 0.00 0.00 0.00 51 1012.5
20260503174515 7 248 4.8 11.3 0.00 0.00 0.00 51 1012.4
20260503173515 7 225 4.8 12.9 0.00 0.00 0.00 51 1012.5
20260503172515 7 68 4.8 12.9 0.00 0.00 0.00 53 1012.4
20260503171535 8 45 3.2 11.3 0.00 0.00 0.00 53 1012.5
20260503170517 7 203 6.4 14.5 0.00 0.00 0.00 53 1012.6